Location: Azul
(36.7830°S, 59.8500°W)
Time: 01:59:22
(UTC-03:00)

UWE-3 - Pass Details

Date: 26 October 2021
Orbit: 584 x 681 km, 97.7° (Epoch: 04 December)

Event Time Altitude Azimuth Distance (km) Brightness Sun altitude
Exits shadow 03:06:09 - 63° (ENE) 2,272 ? -30.3°
Reaches altitude 10° 03:07:04 10° 71° (ENE) 2,002 ? -30.2°
Maximum altitude 03:10:00 18° 113° (ESE) 1,571 ? -29.8°
Drops below altitude 10° 03:13:01 10° 156° (SSE) 2,062 ? -29.4°
Sets 03:15:52 0° 174° (S) 3,001 ? -29.0°
